Flag for Bolivia Weather past 2 weeks in Oruro, Bolivia

Now
57 °F

Passing clouds.


Feels Like: 57 °F
Forecast: 47 / 70 °F
Wind: No wind

Location: Cochabamba Airport

Current Time: Dec 21, 2014 at 4:56:57 AM

Latest Report: Dec 21, 2014 at 4:00 AM


Visibility: N/A

Pressure: 30.04 "Hg

Humidity: 72%

Dew point: 48 °F

Location of OruroLocation

Historic Weather in Oruro — Graph

°F

Oruro temperature yesterday

Maximum temperature yesterday: 86 °F (at 2:00 PM)
Minimum temperature yesterday: 54 °F (at 4:00 AM)
Average temperature yesterday: 67 °F

Past Weeks' High & Low Weather Summary

 TemperatureHumidityPressure
High90 °F (Dec 9, 2:00 PM)100% (Dec 18, 7:00 AM)30.39 "Hg (Dec 18, 7:00 AM)
Low52 °F (Dec 6, 6:00 AM)9% (Dec 6, 1:00 PM)29.92 "Hg (Dec 20, 4:00 PM)
Average68 °F51%30.17 "Hg
* Reported Dec 6 4:00 AM — Dec 21 4:00 AM, Oruro, Weather by CustomWeather, © 2014

Note: Actual official high and low records may vary slightly from our data, if they occured in-between our weather recording intervals... More about our weather records

Advertising

Oruro weather history for previous 24 hours

 ConditionsComfort  
Time TempWeatherWind HumidityBarometerVisibility
4:00 AM
Dec 21
57 °FPassing clouds.No wind72%30.04 "HgN/A
3:00 AM59 °FPassing clouds.No wind68%30.04 "HgN/A
1:00 AM63 °FPassing clouds.No wind52%30.04 "HgN/A
12:00 AM64 °FPassing clouds.No wind52%30.04 "HgN/A
11:00 PM
Dec 20
68 °FPassing clouds.No wind46%30.07 "HgN/A
10:00 PM68 °FPassing clouds.7 mph46%30.01 "HgN/A
9:00 PM68 °FPartly cloudy.6 mph46%29.98 "HgN/A
8:00 PM70 °FPartly cloudy.3 mph46%29.95 "HgN/A
7:00 PM72 °FPartly cloudy.3 mph47%29.95 "HgN/A
6:00 PM73 °FBroken clouds.12 mph41%29.92 "HgN/A
5:00 PM77 °FBroken clouds.10 mph39%29.92 "HgN/A
4:00 PM77 °FBroken clouds.9 mph34%29.92 "HgN/A
3:00 PM75 °FPartly sunny.15 mph41%29.95 "HgN/A
2:00 PM86 °FScattered clouds.7 mph24%29.95 "HgN/A
1:00 PM82 °FScattered clouds.No wind32%29.98 "HgN/A
12:00 PM81 °FScattered clouds.No wind34%30.04 "HgN/A
11:00 AM75 °FScattered clouds.No wind44%30.07 "Hg6 mi
10:00 AM72 °FScattered clouds.No wind50%30.07 "Hg5 mi
9:00 AM68 °FScattered clouds.No wind60%30.09 "Hg2 mi
8:00 AM59 °FFog.No wind88%30.09 "Hg1 mi
7:00 AM57 °FFog.3 mph94%30.09 "Hg1 mi
6:00 AM54 °FFog.No wind94%30.07 "Hg1 mi
5:00 AM54 °FPassing clouds.No wind94%30.07 "Hg4 mi
4:00 AM54 °FPassing clouds.No wind100%30.07 "Hg6 mi
Weather by CustomWeather, © 2014

See weather overviewHow to use our weather pages